Terminal Aerodrome Forecast
Issued by NWS

Home | Current Version | Previous Version | Text Only | Print | Product List | Glossary On
Versions: 1 2 3 4 5 6 7 8 9 10 11 12 13
000
FTUS45 KPSR 310520
TAFBLH
TAF
KBLH 310520Z 3106/0106 26007KT P6SM BKN250
     FM310900 VRB05KT P6SM BKN250
     FM311900 18011G20KT P6SM BKN250
     FM010200 23010KT P6SM SCT250=

USA.gov is the U.S. government's official web portal to all federal, state and local government web resources and services.